Terminal Aerodrome Forecast
Issued by NWS

Home | Current Version | Previous Version | Text Only | Print | Product List | Glossary Off
Versions: 1 2 3 4 5 6 7 8 9 10 11 12 13 14 15 16 17 18 19 20 21 22 23 24 25 26 27 28 29 30 31 32 33 34 35

000
FTUS45 KGGW 241100 RRA
TAFOLF
TAF
KOLF 241150Z 2412/2512 VRB04KT P6SM OVC060
      TEMPO 2412/2414 -FZRA OVC040
     FM241800 VRB03KT P6SM -RASN OVC040
     FM242200 34006KT 6SM -SN SCT003 OVC020
     FM250600 33010KT P6SM OVC015=

USA.gov is the U.S. government's official web portal to all federal, state and local government web resources and services.